AD7CQ Weather Reports


time (UTC)temp
C
wind
direction
speed
KPH
gust
KPH
rain 1hr
cm
rain 24hr
cm
rain mn
cm
humidity
%
barometer
mb
20260510004505 25 21 1.6 6.4 0.00 0.00 0.00 28 1013.6
20260510003005 25 31 0.0 4.8 0.00 0.00 0.00 29 1013.7
20260510001504 25 23 0.0 9.7 0.00 0.00 0.00 29 1013.9
20260510000001 25 45 1.6 6.4 0.00 0.00 0.00 30 1013.8
20260509234611 25 4 0.0 0.0 0.00 0.00 0.00 31 1014.0
20260509233104 25 359 0.0 0.0 0.00 0.00 0.00 31 1014.1
20260509231604 25 4 0.0 9.7 0.00 0.00 0.00 32 1014.3
20260509230056 25 21 1.6 9.7 0.00 0.00 0.00 32 1014.4
20260509224602 25 81 0.0 6.4 0.00 0.00 0.00 33 1014.7
20260509223053 25 84 0.0 11.3 0.00 0.00 0.00 31 1014.9
20260509221551 25 102 1.6 4.8 0.00 0.00 0.00 33 1015.0
20260509220049 25 108 3.2 9.7 0.00 0.00 0.00 32 1015.2
20260509214548 25 114 0.0 4.8 0.00 0.00 0.00 30 1015.3
20260509213059 25 111 0.0 4.8 0.00 0.00 0.00 32 1015.4
20260509211609 25 110 0.0 4.8 0.00 0.00 0.00 33 1015.6
20260509210044 25 100 1.6 4.8 0.00 0.00 0.00 31 1015.7
20260509204557 25 97 0.0 3.2 0.00 0.00 0.00 33 1015.8
20260509203052 25 98 0.0 4.8 0.00 0.00 0.00 34 1016.1
20260509201541 25 99 0.0 6.4 0.00 0.00 0.00 33 1016.3
20260509200039 23 99 0.0 3.2 0.00 0.00 0.00 36 1016.4
20260509194541 23 98 0.0 4.8 0.00 0.00 0.00 34 1016.6
20260509193036 23 100 0.0 6.4 0.00 0.00 0.00 35 1016.8
20260509191535 22 92 0.0 4.8 0.00 0.00 0.00 37 1016.9
20260509190043 23 93 0.0 4.8 0.00 0.00 0.00 36 1017.1
20260509184531 23 92 0.0 6.4 0.00 0.00 0.00 36 1017.4
20260509183027 22 89 0.0 6.4 0.00 0.00 0.00 38 1017.6
20260509181523 22 84 0.0 1.6 0.00 0.00 0.00 39 1017.5
20260509180019 21 83 0.0 3.2 0.00 0.00 0.00 41 1017.7
20260509174516 20 81 0.0 3.2 0.00 0.00 0.00 42 1017.9
20260509173013 20 66 0.0 6.4 0.00 0.00 0.00 42 1017.9
20260509171509 20 64 0.0 3.2 0.00 0.00 0.00 42 1018.0
20260509170006 20 45 0.0 4.8 0.00 0.00 0.00 44 1018.1
20260509164502 20 44 0.0 1.6 0.00 0.00 0.00 43 1018.1
20260509163105 19 46 0.0 0.0 0.00 0.00 0.00 44 1018.3
20260509161554 18 45 0.0 1.6 0.00 0.00 0.00 47 1018.3
20260509160052 18 45 0.0 0.0 0.00 0.00 0.00 51 1018.4
20260509154545 18 45 0.0 0.0 0.00 0.00 0.00 52 1018.4
20260509153041 17 45 0.0 0.0 0.00 0.00 0.00 54 1018.4
20260509151639 16 45 0.0 0.0 0.00 0.00 0.00 56 1018.5
20260509150036 16 45 0.0 0.0 0.00 0.00 0.00 57 1018.3
20260509144527 16 45 0.0 0.0 0.00 0.00 0.00 59 1018.3
20260509143028 15 44 0.0 0.0 0.00 0.00 0.00 63 1018.0
20260509141519 13 45 0.0 3.2 0.00 0.00 0.00 67 1018.1
20260509140015 12 44 0.0 0.0 0.00 0.00 0.00 71 1018.1
20260509134510 12 45 0.0 0.0 0.00 0.00 0.00 72 1017.9
20260509133006 10 44 0.0 3.2 0.00 0.00 0.00 76 1017.7
20260509131502 10 45 0.0 1.6 0.00 0.00 0.00 78 1017.5
20260509124606 10 44 0.0 3.2 0.00 0.00 0.00 74 1017.5
20260509123053 10 93 0.0 1.6 0.00 0.00 0.00 71 1017.4
20260509121551 11 93 0.0 3.2 0.00 0.00 0.00 71 1017.3
20260509120051 11 93 0.0 3.2 0.00 0.00 0.00 72 1017.3
20260509114556 10 93 0.0 3.2 0.00 0.00 0.00 72 1017.3
20260509113050 11 93 0.0 1.6 0.00 0.00 0.00 71 1017.2
20260509111551 10 93 0.0 1.6 0.00 0.00 0.00 71 1017.1
20260509110054 11 93 0.0 1.6 0.00 0.00 0.00 69 1017.3
20260509104547 11 93 0.0 1.6 0.00 0.00 0.00 68 1017.0
20260509103046 10 93 0.0 0.0 0.00 0.00 0.00 71 1017.0
20260509101544 10 93 0.0 0.0 0.00 0.00 0.00 70 1016.9
20260509100041 11 93 0.0 0.0 0.00 0.00 0.00 70 1016.8
20260509094540 11 93 0.0 1.6 0.00 0.00 0.00 70 1016.8
20260509093038 11 93 0.0 0.0 0.00 0.00 0.00 68 1016.6
20260509091536 11 93 0.0 1.6 0.00 0.00 0.00 65 1016.6
20260509090032 12 93 0.0 1.6 0.00 0.00 0.00 63 1016.5
20260509084531 12 93 0.0 0.0 0.00 0.00 0.00 61 1016.5
20260509083026 13 93 0.0 0.0 0.00 0.00 0.00 59 1016.4
20260509081523 13 93 0.0 0.0 0.00 0.00 0.00 56 1016.2
20260509080025 13 93 0.0 3.2 0.00 0.00 0.00 54 1016.1
20260509074516 14 119 0.0 4.8 0.00 0.00 0.00 51 1016.0
20260509073032 15 118 0.0 3.2 0.00 0.00 0.00 49 1015.8
20260509071509 15 119 0.0 3.2 0.00 0.00 0.00 49 1015.6
20260509070007 15 117 0.0 3.2 0.00 0.00 0.00 50 1015.4
20260509064505 16 242 0.0 3.2 0.00 0.00 0.00 46 1015.4
20260509063003 16 242 0.0 0.0 0.00 0.00 0.00 41 1015.2
20260509061501 16 241 0.0 0.0 0.00 0.00 0.00 40 1015.0
20260509060003 16 241 0.0 1.6 0.00 0.00 0.00 38 1015.0
20260509054604 17 241 0.0 3.2 0.00 0.00 0.00 38 1014.5
20260509053057 17 241 0.0 3.2 0.00 0.00 0.00 35 1014.7
20260509051603 18 241 0.0 3.2 0.00 0.00 0.00 34 1014.6
20260509050053 18 241 0.0 3.2 0.00 0.00 0.00 32 1014.3
20260509044554 18 242 0.0 4.8 0.00 0.00 0.00 31 1014.2
20260509043054 18 241 1.6 4.8 0.00 0.00 0.00 31 1013.7
20260509041546 18 253 0.0 3.2 0.00 0.00 0.00 31 1013.5
20260509040052 19 253 0.0 4.8 0.00 0.00 0.00 30 1013.1
20260509034541 19 262 1.6 6.4 0.00 0.00 0.00 29 1012.8
20260509033040 20 270 1.6 6.4 0.00 0.00 0.00 26 1012.6
20260509031538 21 293 3.2 16.1 0.00 0.00 0.00 23 1012.3
20260509030040 21 299 1.6 12.9 0.00 0.00 0.00 22 1012.1
20260509024536 22 254 3.2 9.7 0.00 0.00 0.00 21 1011.6
20260509023036 23 359 1.6 6.4 0.00 0.00 0.00 19 1011.5
20260509021536 23 299 1.6 9.7 0.00 0.00 0.00 20 1011.4
20260509020035 25 273 1.6 12.9 0.00 0.00 0.00 19 1011.2
20260509014534 25 291 1.6 14.5 0.00 0.00 0.00 19 1011.1
20260509013045 26 292 1.6 8.0 0.00 0.00 0.00 20 1011.0
20260509011534 26 308 1.6 9.7 0.00 0.00 0.00 20 1010.8
20260509010037 26 274 1.6 9.7 0.00 0.00 0.00 19 1010.7